Location: Unspecified
(48.8582°N, 2.2947°E)
Time: 18:46:30
(UTC+02:00)

OTV 5 (USA 277) - Visible Passes

Search period start: 22 September 2018 00:00
Search period end: 02 October 2018 00:00
Orbit: 387 x 394 km, 54.5° (Epoch: 08 September)

Date Brightness Start Highest point End Pass type
(mag) Time Alt. Az. Time Alt. Az. Time Alt. Az.
26 Sep ? 07:06:39 10° S 07:08:54 18° SE 07:11:10 10° E visible
28 Sep ? 06:49:05 10° SSW 06:51:56 30° SE 06:54:48 10° ENE visible
29 Sep ? 05:54:17 12° SSE 05:55:48 16° SE 05:57:52 10° E visible
30 Sep ? 06:32:51 18° SW 06:35:01 51° SE 06:38:10 10° ENE visible
01 Oct ? 05:38:54 27° SE 05:38:54 27° SE 05:41:34 10° ENE visible
01 Oct ? 07:11:25 10° WSW 07:14:35 56° NNW 07:17:45 10° ENE visible
